Regional Weather Roundup
Issued by NWS

Home | Current Version | Previous Version | Graphics & Text | Print | Product List | Glossary On
Versions: 1 2 3 4 5 6 7 8 9 10 11 12 13 14 15 16 17 18 19 20 21 22 23 24 25 26 27
000
ASUS45 KCYS 120810
RWRWY

WYOMING REGIONAL WEATHER ROUNDUP
NATIONAL WEATHER SERVICE CHEYENNE WY
100 AM MST TUE DEC 12 2017

NOTE:  "FAIR" INDICATES FEW OR NO CLOUDS BELOW 12,000 FEET
WITH NO SIGNIFICANT WEATHER AND/OR OBSTRUCTIONS TO VISIBILITY.

WYZ001-120900-
YELLOWSTONE NATIONAL PARK

CITY           SKY/WX    TMP DP  RH WIND       PRES   REMARKS
LK YELLOWSTONE   N/A      9   7  92 CALM      30.59S
W YELLOWSTONE  NOT AVBL

$$
WYZ002>013-054>058-071-098>099-120900-
NORTHERN WYOMING

CITY           SKY/WX    TMP DP  RH WIND       PRES   REMARKS
JACKSON        FAIR      12   9  87 NE6       30.60S WCI   3
CODY           FAIR      23  17  78 CALM      30.38F
GREYBULL       FAIR      15  10  80 SW3       30.42F
WORLAND        FAIR      20  15  81 S6        30.41F WCI  12
SHERIDAN       FAIR      24  16  71 CALM      30.32F
BUFFALO        FAIR      38   4  24 SW7       30.34F WCI  33
GILLETTE       FAIR      35  17  47 SW13      30.32F WCI  26
HULETT         FAIR      32  18  55 SW12      30.33F WCI  23
NEWCASTLE      FAIR      21  12  68 CALM      30.36F

$$
WYZ014>020-022>026-101>103-120900-
CENTRAL WYOMING

CITY           SKY/WX    TMP DP  RH WIND       PRES   REMARKS
BIG PINEY      FAIR      16   7  67 NW8       30.53F WCI   5
PINEDALE       FAIR      18  12  79 CALM      30.52F
DUBOIS         FAIR      34   1  25 NW10      30.47F WCI  26
LANDER         FAIR      27  18  69 CALM      30.43F
RIVERTON       FAIR      20  14  77 CALM      30.44F
CASPER         FAIR      26  16  65 SW9       30.42F WCI  17
DOUGLAS        FAIR      24  18  77 NW5       30.40F WCI  18

$$
WYZ021-027>030-104>119-120900-
SOUTHERN WYOMING

CITY           SKY/WX    TMP DP  RH WIND       PRES   REMARKS
EVANSTON       FAIR      34  10  37 CALM      30.54F
FORT BRIDGER   FAIR      36  10  33 W8        30.55S WCI  30
ROCK SPRINGS   FAIR      27  13  55 W5        30.51S WCI  22
DIXON          FAIR      18  11  73 E3        30.56S
RAWLINS        FAIR      16  11  80 CALM      30.50S
SARATOGA       FAIR      23  12  63 CALM      30.51S
LARAMIE        FAIR      18  11  74 S8        30.44F WCI   8
CHEYENNE       FAIR      31  16  54 NW6       30.40F WCI  25
TORRINGTON     FAIR      25  14  63 NW9       30.38F WCI  15
PINE BLUFFS    FAIR      18  10  73 SW5       30.41F WCI  11

$$




USA.gov is the U.S. government's official web portal to all federal, state and local government web resources and services.